DW1336 Weather Reports


time (UTC)temp
C
wind
direction
speed
KPH
gust
KPH
rain 1hr
cm
rain 24hr
cm
rain mn
cm
humidity
%
barometer
mb
20260506182105 1 342 0.0 14.5 0.05 1.12 0.13 92 1023.0
20260506181604 0 298 0.0 14.5 0.05 1.12 0.13 92 1023.0
20260506181104 0 331 1.6 4.8 0.03 1.09 0.10 92 1023.0
20260506180604 0 355 1.6 8.0 0.10 1.09 0.10 92 1023.0
20260506180104 0 355 1.6 8.0 0.10 1.09 0.10 91 1022.9
20260506175604 0 355 1.6 4.8 0.10 1.09 0.10 92 1022.7
20260506175104 0 346 1.6 4.8 0.10 1.09 0.10 92 1022.7
20260506174605 0 347 1.6 4.8 0.10 1.09 0.10 92 1022.7
20260506174104 0 349 0.0 4.8 0.10 1.09 0.10 92 1022.6
20260506173604 0 355 0.0 3.2 0.08 1.07 0.08 92 1022.6
20260506173104 0 326 0.0 3.2 0.08 1.07 0.08 92 1022.6
20260506172604 0 313 0.0 3.2 0.08 1.07 0.08 92 1022.5
20260506171104 0 316 0.0 3.2 0.08 1.07 0.08 92 1022.3
20260506095105 0 347 0.0 0.0 0.00 0.99 0.00 94 1018.1
20260506094604 0 347 0.0 0.0 0.00 0.99 0.00 94 1018.0
20260506094104 0 347 0.0 0.0 0.00 0.99 0.00 94 1017.9
20260506093604 0 347 0.0 0.0 0.00 0.99 0.00 94 1017.9
20260506093104 0 347 0.0 0.0 0.00 0.99 0.00 94 1017.8
20260506092104 0 347 0.0 0.0 0.00 0.99 0.00 94 1017.7
20260506091604 0 347 0.0 0.0 0.00 0.99 0.00 94 1017.7
20260506090104 0 346 0.0 0.0 0.00 0.99 0.00 94 1017.7
20260506085604 0 346 0.0 0.0 0.00 0.99 0.00 94 1017.7
20260506085104 0 346 0.0 0.0 0.00 0.99 0.00 94 1017.7
20260506084604 0 346 0.0 0.0 0.00 0.99 0.00 94 1017.6
20260506084104 0 346 0.0 0.0 0.00 0.99 0.00 94 1017.6
20260506083604 0 345 0.0 0.0 0.00 0.99 0.00 94 1017.6
20260506082604 0 342 0.0 0.0 0.00 0.99 0.00 94 1017.6
20260506082104 0 340 0.0 0.0 0.00 0.99 0.00 94 1017.6
20260506081604 0 340 0.0 0.0 0.00 0.99 0.00 94 1017.6
20260506081104 0 339 0.0 0.0 0.00 0.99 0.00 94 1017.6
20260506080605 0 339 0.0 0.0 0.00 0.99 0.00 94 1017.6
20260506080104 0 339 0.0 0.0 0.00 0.99 0.00 94 1017.5
20260506073104 0 338 0.0 0.0 0.00 0.99 0.00 94 1017.3
20260506072604 0 338 0.0 0.0 0.00 0.99 0.00 94 1017.3
20260506072104 0 338 0.0 0.0 0.00 0.99 0.00 94 1017.3
20260506071604 0 338 0.0 0.0 0.00 0.99 0.00 94 1017.2
20260506071104 0 338 0.0 0.0 0.00 0.99 0.00 94 1017.1
20260506070604 0 338 0.0 0.0 0.00 0.99 0.00 94 1017.1
20260506070104 0 338 0.0 0.0 0.00 0.99 0.00 94 1017.0
20260506062104 0 325 0.0 0.0 0.00 0.99 0.00 94 1016.8
20260506061604 0 321 0.0 0.0 0.00 0.99 0.00 94 1016.6
20260506060604 0 321 0.0 0.0 0.00 0.99 0.00 94 1016.3
20260506060104 0 321 0.0 0.0 0.00 0.99 0.00 94 1016.3
20260506051104 0 313 0.0 0.0 0.00 0.99 0.99 94 1016.0
20260506050604 0 313 0.0 0.0 0.00 0.99 0.99 94 1015.9
20260506050105 0 313 0.0 0.0 0.00 0.99 0.99 94 1015.8
20260506045105 0 312 0.0 0.0 0.00 0.99 0.99 94 1015.7
20260506044605 0 317 0.0 0.0 0.00 0.99 0.99 94 1015.6
20260506044104 0 317 0.0 0.0 0.00 0.99 0.99 94 1015.8
20260506043604 0 317 0.0 0.0 0.00 1.02 0.99 94 1015.8
20260506043105 0 317 0.0 0.0 0.00 1.02 0.99 94 1015.8
20260506042604 0 317 0.0 0.0 0.03 1.02 0.99 94 1015.7
20260506041604 0 318 0.0 0.0 0.03 1.04 0.99 94 1015.6
20260506041105 0 319 0.0 0.0 0.03 1.04 0.99 94 1015.6
20260506040604 0 323 0.0 0.0 0.03 1.07 0.99 94 1015.3
20260506040104 0 323 0.0 0.0 0.03 1.09 0.99 94 1015.3
20260506035604 0 323 0.0 0.0 0.03 1.09 0.99 94 1015.4
20260506035104 0 323 0.0 3.2 0.03 1.12 0.99 94 1015.3
20260506034604 0 324 0.0 3.2 0.03 1.14 0.99 94 1015.3
20260506034104 0 343 0.0 1.6 0.03 1.14 0.99 94 1015.2
20260506033604 0 304 0.0 0.0 0.03 1.17 0.99 94 1015.1
20260506032605 0 293 0.0 0.0 0.00 1.24 0.97 94 1015.0
20260506032105 0 308 0.0 0.0 0.00 1.32 0.97 94 1014.8
20260506031604 0 313 0.0 0.0 0.00 1.37 0.97 94 1014.6
20260506030605 0 300 0.0 0.0 0.00 1.37 0.97 94 1014.6
20260506025604 0 300 0.0 0.0 0.00 1.37 0.97 94 1014.4
20260506024104 0 337 0.0 1.6 0.00 1.37 0.97 94 1014.0
20260506023604 0 342 0.0 0.0 0.00 1.37 0.97 94 1014.0
20260506023104 0 322 0.0 0.0 0.00 1.37 0.97 94 1013.9
20260506022604 0 317 0.0 0.0 0.00 1.37 0.97 94 1013.9
20260506022104 0 327 0.0 3.2 0.03 1.37 0.97 94 1013.6
20260506021604 0 339 0.0 3.2 0.03 1.37 0.97 94 1013.3
20260506021104 0 337 0.0 0.0 0.03 1.37 0.97 94 1013.3
20260506020604 0 337 0.0 0.0 0.03 1.37 0.97 94 1012.9
20260506020104 0 337 0.0 3.2 0.03 1.37 0.97 94 1013.0
20260506015604 0 339 0.0 3.2 0.03 1.37 0.97 94 1013.1
20260506015104 0 342 0.0 3.2 0.03 1.37 0.97 94 1013.0
20260506014604 0 321 0.0 1.6 0.03 1.37 0.97 93 1012.9
20260506014104 0 327 0.0 1.6 0.03 1.37 0.97 93 1012.8
20260506013604 0 333 0.0 1.6 0.03 1.37 0.97 93 1012.7
20260506013104 0 330 0.0 0.0 0.03 1.37 0.97 93 1012.6
20260506012104 0 316 0.0 3.2 0.03 1.35 0.94 93 1012.6
20260506011604 0 314 0.0 3.2 0.03 1.35 0.94 93 1012.5
20260506010604 0 333 0.0 3.2 0.05 1.35 0.94 93 1012.3
20260506010104 0 288 0.0 3.2 0.05 1.35 0.94 93 1012.1
20260506005604 0 353 0.0 3.2 0.05 1.35 0.94 93 1012.2
20260506005105 0 317 0.0 3.2 0.08 1.37 0.94 93 1012.1
20260506003605 0 320 0.0 4.8 0.08 1.37 0.94 93 1012.0
20260506003104 0 346 0.0 3.2 0.08 1.37 0.94 93 1011.8
20260506002604 1 316 0.0 3.2 0.08 1.37 0.94 93 1011.8
20260506002104 1 341 0.0 3.2 0.05 1.35 0.91 93 1011.7
20260506001104 0 345 0.0 4.8 0.05 1.35 0.91 93 1011.4
20260506000604 0 330 1.6 4.8 0.05 1.32 0.89 93 1011.4
20260506000104 0 339 0.0 3.2 0.05 1.32 0.89 93 1011.3
20260505235604 0 337 0.0 4.8 0.05 1.32 0.89 93 1011.3
20260505235104 0 336 0.0 4.8 0.03 1.30 0.86 93 1011.2
20260505234604 0 351 0.0 3.2 0.03 1.30 0.86 93 1011.0
20260505234104 0 317 0.0 3.2 0.05 1.30 0.86 93 1010.8
20260505233104 1 336 0.0 3.2 0.08 1.30 0.86 93 1010.9
20260505232104 1 332 0.0 4.8 0.13 1.30 0.86 93 1011.0
20260505231604 1 322 1.6 4.8 0.13 1.30 0.86 93 1010.6
20260505231104 1 337 1.6 4.8 0.18 1.30 0.86 93 1010.4
20260505230604 1 325 0.0 4.8 0.15 1.27 0.84 92 1009.9
20260505230104 1 334 0.0 4.8 0.18 1.27 0.84 92 1009.8
20260505225604 1 342 0.0 3.2 0.20 1.27 0.84 93 1010.2
20260505225104 1 260 0.0 0.0 0.23 1.27 0.84 93 1010.4
20260505224604 1 232 0.0 0.0 0.25 1.27 0.84 93 1010.2
20260505224104 1 232 0.0 0.0 0.23 1.24 0.81 93 1009.7
20260505222604 1 222 0.0 3.2 0.20 1.19 0.76 92 1009.2
20260505222104 1 221 0.0 3.2 0.18 1.17 0.74 92 1009.1
20260505220604 1 160 0.0 3.2 0.13 1.12 0.69 92 1008.7
20260505220104 2 224 0.0 3.2 0.13 1.09 0.66 92 1008.4
20260505215604 2 216 1.6 4.8 0.10 1.07 0.64 92 1008.4
20260505215104 2 182 0.0 4.8 0.10 1.04 0.61 92 1008.4
20260505214605 2 200 0.0 4.8 0.10 1.02 0.58 92 1008.5
20260505214104 2 169 0.0 4.8 0.10 1.02 0.58 92 1008.5
20260505213604 2 187 1.6 4.8 0.10 1.02 0.58 91 1008.5
20260505213104 2 163 0.0 8.0 0.08 0.99 0.56 91 1008.5
20260505212605 3 145 3.2 8.0 0.08 0.99 0.56 91 1008.4
20260505212104 3 209 1.6 4.8 0.08 0.99 0.56 91 1008.4
20260505211604 3 218 1.6 8.0 0.08 0.99 0.56 91 1008.4
20260505210604 3 220 0.0 4.8 0.08 0.99 0.56 91 1008.3
20260505205604 3 214 3.2 8.0 0.08 0.97 0.53 89 1008.3
20260505205104 4 226 1.6 4.8 0.08 0.94 0.51 89 1008.4
20260505204604 4 229 1.6 4.8 0.05 0.91 0.48 89 1008.5
20260505204104 4 234 3.2 11.3 0.05 0.91 0.48 88 1008.6
20260505203604 5 233 1.6 11.3 0.05 0.91 0.48 89 1008.8
20260505203104 5 203 1.6 4.8 0.05 0.91 0.48 90 1008.9
20260505202604 5 234 1.6 4.8 0.08 0.91 0.48 91 1008.8
20260505202104 4 201 0.0 3.2 0.08 0.91 0.48 91 1008.8
20260505201604 4 139 0.0 3.2 0.08 0.91 0.48 91 1008.7
20260505201104 4 163 0.0 4.8 0.08 0.91 0.48 90 1008.8
20260505200604 4 182 0.0 8.0 0.08 0.91 0.48 91 1008.7
20260505200104 3 203 1.6 8.0 0.05 0.89 0.46 90 1008.6
20260505195604 3 169 0.0 3.2 0.05 0.89 0.46 90 1008.6
20260505195104 4 161 0.0 1.6 0.03 0.86 0.43 91 1008.5
20260505194605 3 167 0.0 3.2 0.03 0.86 0.43 90 1008.5
20260505194104 4 114 0.0 3.2 0.03 0.86 0.43 90 1008.5
20260505192605 4 62 0.0 3.2 0.03 0.84 0.41 90 1008.4
20260505192104 4 1 0.0 3.2 0.03 0.84 0.41 91 1008.4
20260505191604 4 321 0.0 1.6 0.05 0.84 0.41 92 1008.4
20260505191104 4 10 0.0 1.6 0.05 0.84 0.41 92 1008.5
20260505190105 3 333 0.0 3.2 0.05 0.84 0.41 92 1008.4
20260505185604 3 355 0.0 4.8 0.05 0.84 0.41 92 1008.4
20260505185104 3 16 3.2 4.8 0.08 0.84 0.41 91 1008.5
20260505184604 3 7 0.0 3.2 0.08 0.84 0.41 92 1008.5
20260505184105 3 13 0.0 3.2 0.08 0.84 0.41 92 1008.6
20260505183604 3 326 1.6 3.2 0.05 0.81 0.38 92 1008.7
20260505183104 3 340 0.0 3.2 0.05 0.81 0.38 92 1008.7
20260505182604 3 5 0.0 3.2 0.08 0.81 0.38 92 1008.7